Location: Fontevrault
(47.1823°N, 0.0493°E)
Time: 03:23:49
(UTC+00:00)

Meteor 1-21 Rocket - Pass Details

Date: 26 October 2021
Orbit: 834 x 907 km, 81.2° (Epoch: 07 December)

Event Time Altitude Azimuth Distance (km) Brightness Sun altitude
Rises 04:54:14 0° 137° (SE) 3,400 8.0 -17.5°
Reaches altitude 10° 04:57:38 10° 116° (ESE) 2,483 7.6 -17.0°
Maximum altitude 05:00:46 15° 82° (E) 2,143 7.4 -16.4°
Drops below altitude 10° 05:03:55 10° 48° (NE) 2,520 7.3 -15.9°
Sets 05:07:24 0° 27° (NNE) 3,480 7.7 -15.3°
